www.pogodaiklimat.ru

Погода и климат >> Архив погоды >> Мальта >> Мальта


АРХИВ ПОГОДЫ на Мальте

Время (UTC), дата Ветер
(напр.,м/с)
 
Видим.   Явления Облачность Т
(С)
Тd
(С)
f
(%)
Тe
(С)
Тes
(С)
Комфортность P
(гПа)
Po
(гПа)
Тmin
(С)
Tmax
(С)
R
(мм)
R24
(мм)
S
(см)
03 13.09 С 3
{4}
12 км 1/1 500 м
[Sc]
+22.8 +21.8 94 +31 +31 очень
душно
1023.4 1012.8
06 13.09 СВ 4
{8}
20 км 1/1 360 м
[Cu Sc]
+24.5 +22.9 91 +32 +33 очень
душно
1023.8 1013.3 +22.4 +24.8
09 13.09 СВ 4
{8}
25 км ясно +27.6 +17.9 56 +32 +41 очень
душно
1024.5 1014.0
12 13.09 СВ 5
{9}
25 км 1/1 900 м
[Cu hum]
+28.7 +17.1 49 +32 +40 душно 1023.8 1013.4
15 13.09 В 2
{7}
30 км ясно +29.0 +17.3 49 +33 +37 очень
душно
1023.4 1013.0
18 13.09 С 2
{7}
15 км ясно +25.1 +18.0 65 +29 +29 душно 1023.6 1013.0 +24.6 +30.0
21 13.09 СВ 3
{5}
12 км ясно +24.5 +19.4 73 +30 +30 очень
душно
1024.6 1014.0
00 14.09 С 2
{5}
8000 м дымка 8/6 1500 м
[Sc Ci sp]
+23.2 +21.2 89 +31 +31 очень
душно
1024.1 1013.5
03 14.09 С 3
{3}
10 км ясно +22.3 +21.1 93 +29 +29 очень
душно
1023.0 1012.4
06 14.09 С 2
{5}
10 км ясно +23.8 +22.2 91 +31 +32 очень
душно
1023.4 1012.8 +22.1 +24.9
09 14.09 СВ 4
{9}
20 км 1/1 750 м
[Cu med, cong]
+27.7 +17.8 55 +32 +39 очень
душно
1024.1 1013.6
12 14.09 СВ 4
{9}
25 км 1/1 840 м
[Cu med, cong]
+28.5 +16.0 47 +32 +40 душно 1023.7 1013.3
15 14.09 С 5
{8}
20 км 1/1 900 м
[Cu med, cong]
+27.8 +16.1 49 +31 +33 душно 1022.4 1012.0
18 14.09 С 3
{8}
22 км н/о +24.9 +19.4 72 +30 +30 душно 1022.7 1012.2 +23.8 +29.1
21 14.09 С 2
{6}
12 км 1/1 750 м
[Sc]
+23.3 +20.6 85 +31 +31 очень
душно
1023.6 1013.0
00 15.09 С 2
{6}
10 км 1/1 750 м
[Sc]
+22.6 +20.3 87 +29 +29 очень
душно
1022.8 1012.2
03 15.09 СЗ 2
{3}
10 км 4/1 750 м
[Sc Ci sp]
+21.2 +19.8 92 +26 +26 душно 1022.2 1011.5
06 15.09 С 3
{4}
20 км 1/0
[Ci fib]
+22.8 +21.5 92 +30 +31 очень
душно
1023.2 1012.6 +20.9 +25.0
09 15.09 СВ 4
{7}
25 км 1/1 600 м
[Cu hum]
+27.1 +20.0 65 +33 +41 очень
душно
1023.7 1013.2
12 15.09 СВ 3
{9}
25 км 4/4 630 м
[Cu hum]
+26.9 +20.4 68 +33 +40 очень
душно
1022.8 1012.4
15 15.09 В 3
{8}
25 км 5/5 630 м
[Cu med, cong]
+25.7 +20.6 73 +32 +34 очень
душно
1021.5 1011.0
18 15.09 В 2
{8}
15 км 6/6 600 м
[Cu med, cong Ci fib]
+24.7 +20.6 78 +31 +31 очень
душно
1021.2 1010.7 +22.8 +28.4
21 15.09 З 1
{3}
15 км 3/3 600 м
[Cu hum Ci fib]
+22.7 +20.4 87 +29 +29 очень
душно
1021.9 1011.3
00 16.09 ЮЗ 1
{3}
10 км 1/0
[Ci fib]
+21.3 +20.1 93 +26 +26 душно 1021.0 1010.4
03 16.09 З 3
{3}
10 км 4/0
[Ci fib]
+21.4 +20.6 95 +27 +27 душно 1019.8 1009.2
06 16.09 З 2
{3}
12 км 1/1 540 м
[Cu hum Ci fib]
+22.3 +21.1 93 +29 +30 очень
душно
1020.0 1009.4 +20.1 +24.6
09 16.09 СВ 2
{4}
15 км 1/1 660 м
[Cu hum]
+27.4 +18.4 58 +32 +42 очень
душно
1020.5 1010.1
12 16.09 СВ 4
{8}
20 км 3/3 900 м
[Cu hum]
+27.4 +20.2 65 +34 +41 очень
душно
1019.5 1009.1
15 16.09 В 3
{7}
20 км 1/1 840 м
[Cu hum]
+25.6 +19.6 69 +31 +34 очень
душно
1018.4 1008.0
18 16.09 СЗ 2
{7}
12 км 1/1 600 м
[Sc]
+23.8 +18.7 73 +28 +28 душно 1018.3 1007.8 +22.6 +28.8
21 16.09 З 2
{3}
10 км ясно +21.3 +18.4 84 +26 +26 душно 1018.9 1008.3
00 17.09 З 2
{3}
10 км ясно +20.2 +17.4 84 +24 +24 комфорт 1018.4 1007.8
03 17.09 З 1
{3}
10 км ясно +20.1 +18.1 88 +25 +25 комфорт 1017.7 1007.1
06 17.09 З 2
{3}
10 км 1/1 600 м
[Cu hum]
+21.6 +19.4 87 +27 +28 душно 1018.1 1007.5 +19.7 +23.9
12 17.09 З 5
{7}
20 км 3/1 1050 м
[Cu Sc]
+27.6 +17.3 53 +32 +38 очень
душно
1017.9 1007.5
15 17.09 З 4
{7}
20 км 1/1 1200 м
[Sc]
+26.7 +18.0 59 +31 +34 душно 1016.5 1006.1
18 17.09 З 2
{7}
15 км ясно +23.8 +18.0 70 +28 +28 душно 1016.3 1005.8 +21.9 +28.4
21 17.09 З 2
{3}
12 км ясно +22.5 +18.2 77 +28 +28 душно 1017.0 1006.4
00 18.09 З 2
{3}
12 км ясно +21.2 +18.6 85 +26 +26 душно 1016.7 1006.1
03 18.09 ЮЗ 2
{2}
12 км ясно +20.8 +18.8 88 +26 +26 душно 1016.0 1005.4
06 18.09 ЮЗ 2
{3}
15 км 1/1 450 м
[Cu hum]
+22.8 +20.1 85 +29 +30 очень
душно
1016.4 1005.9 +19.7 +23.7
09 18.09 ЮЗ 3
{7}
20 км 3/3 720 м
[Cu hum]
+26.9 +19.0 62 +32 +39 очень
душно
1017.1 1006.7
12 18.09 ЮЗ 3
{7}
20 км 1/1 900 м
[Cu hum]
+28.8 +19.4 57 +35 +45 очень
душно
1016.2 1005.9
15 18.09 З 4
{8}
20 км 1/1 900 м
[Cu hum Ci fib]
+27.4 +20.3 65 +34 +36 очень
душно
1015.9 1005.5
18 18.09 З 2
{8}
12 км ясно +24.8 +21.0 79 +31 +31 очень
душно
1016.0 1005.5 +22.9 +29.6
21 18.09 ЮЗ 2
{3}
15 км 3/0
[Ci fib]
+23.8 +21.5 87 +30 +30 очень
душно
1017.0 1006.5
00 19.09 З 2
{4}
12 км 9/9
[Cu med, cong]
+23.7 +21.9 90 +31 +31 очень
душно
1016.5 1006.0
03 19.09 З 2
{4}
12 км 5/1 450 м
[Sc Ci fib]
+23.7 +21.9 90 +31 +31 очень
душно
1016.5 1006.0
06 19.09 ЮЗ 2
{4}
20 км 1/1 540 м
[Sc Ci fib]
+24.5 +22.6 89 +32 +33 очень
душно
1016.2 1005.8 +23.0 +24.7
09 19.09 З 4
{7}
20 км 4/4 500 м
[Sc]
+27.5 +22.2 73 +36 +41 очень
душно
1017.1 1006.7
12 19.09 ЮЗ 5
{8}
20 км 4/4 500 м
[Sc]
+28.7 +22.1 68 +37 +41 очень
душно
1016.0 1005.7
15 19.09 З 4
{7}
20 км 1/1 570 м
[Sc]
+28.5 +22.1 68 +37 +39 очень
душно
1014.9 1004.7
18 19.09 З 3
{8}
15 км 1/1 420 м
[Sc]
+26.0 +23.6 87 +35 +35 очень
душно
1015.6 1005.2 +24.6 +29.8
21 19.09 ЮЗ 2
{4}
15 км 1/1 480 м
[Sc Ci fib]
+25.2 +23.7 91 +34 +34 очень
душно
1016.8 1006.4
00 20.09 ЮЗ 3
{4}
10 км 1/1 330 м
[Sc Ac trans]
+24.9 +24.3 96 +34 +34 очень
душно
1016.5 1006.1

 

Местоположение метеостанции Мальта (Мальта): широта 35.85 долгота 14.48 высота над уровнем моря 91 м.

В архиве по умолчанию представлена погода на Мальте за последнюю неделю. Архивные данные за месяц целиком и за предыдущие месяцы, начиная с января 2011 года, Вы можете получить, выбрав интересующий диапазон дат из раскрывающегося списка и нажав кнопку "Ввод!".


*Определитесь, кто Вы:
робот инопланетянин человек

Внимание! Время в таблицах - всемирное. Для получения местного времени необходимо прибавить поправку, которая равна 1 ч.

Смотрите также архив погоды в соседних городах и на ближайших метеорологических станциях:

Погода в Коццо Спадаро (Италия) (109 км)
Погода в Джеле (Италия) (139 км)
Погода в Сиракузах (Италия) (153 км)
Погода в Лампедузе (Италия) (174 км)
Погода в Катании (Италия) (177 км)
Погода в Аэропорту Фонтанаросса (Италия) (187 км)
Погода в Энне (Италия) (192 км)
Погода в Прицци (Италия) (228 км)
Погода в Джибилманне (Италия) (240 км)
Погода в Пантеллерии (Италия) (249 км)

Пояснения к столбцам:

Ветер - указаны скорость ветра в м/с - средняя за 10 мин, порывы в срок и между сроками (в фигурных скобках) и направление, откуда дует ветер: С - северный, СВ - северо-восточный, В - восточный, ЮВ - юго-восточный, Ю - южный, ЮЗ - юго-западный, З - западный, СЗ - северо-западный.
Видимость - горизонтальная дальность видимости в метрах или километрах. При видимости от 1 до 10 км при отсутствии осадков обычно наблюдается дымка, при ухудшении видимости до 1 км и менее - туман. В сухую погоду видимость может ухудшаться дымом, пылью или мглою.
Явления - указаны атмосферные явления, наблюдавшиеся в срок или в последний час перед сроком; фигурными скобками обозначены явления, наблюдавшиеся между сроками (за 1-3 часа до срока); квадратными скобками обозначены град или гололедные отложения с указанием их диаметра в мм.
Облачность - указаны через наклонную черту общая и нижняя облачность в баллах и высота нижней границы облаков в метрах; квадратными скобками обозначены формы облаков: Ci - перистые, Cs - перисто-слоистые, Cc - перисто-кучевые, Ac - высококучевые, As - высокослоистые, Sc - слоисто-кучевые, Ns - слоисто-дождевые, Cu - кучевые, Cb - кучево-дождевые. Подробнее классификацию облаков см. в Атласе облаков (PDF).
T - Температура воздуха - температура, измеренная на высоте 2 м над землей.
Td - Температура точки росы - температура, при понижении до которой содержащийся в воздухе водяной пар достигнет насыщения.
f - Относительная влажность воздуха - влажноcть воздуха, измеренная на высоте 2 м над землей.
Te - Эффективная температура - температура, которую ощущает одетый по сезону человек в тени. Характеристика душности погоды. При расчете учитывается влияние влажности воздуха и скорости ветра на теплоощущения человека.
Tes - Эффективная температура на солнце - температура, которую ощущает человек, с поправкой на солнечный нагрев. Характеристика знойности погоды. Зависит от высоты солнца над горизонтом, облачности и скорости ветра. Ночью, в пасмурную погоду, а также при ветре 12 м/с и более поправка равна нулю.
P - Атмосферное давление - приведенное к уровню моря атмосферное давление.
Po - Атмосферное давление - измеренное на уровне метеостанции атмосферное давление.
Tmin - Минимальная температура - минимум температуры воздуха на высоте 2 м над землей.
Tmax - Максимальная температура - максимум температуры воздуха на высоте 2 м над землей.
R - Количество осадков - Количество выпавших осадков за период времени, мм. При наведении курсора мыши на число - период времени, за который выпало указанное количество осадков.
R24 - Количество осадков - Количество выпавших осадков за 24 часа, мм.
S - Снежный покров - Высота снежного покрова, см. При наведении курсора мыши на число - состояние снежного покрова и степень покрытия местности в баллах.